[[{"header":{"parameterUnit":"m.s-1","parameterCategory":1,"la1":30.2991,"la2":30.254,"lo1":-89.0895,"lo2":-89.0444,"dy":0.0017,"dx":0.0017,"nx":28,"ny":28,"refTime":"2025-06-16T21:00:00:Z","depth":0,"parameterNumber":2,"parameterNumberName":"U-component_of_WINDS"},"data":[0,0,0,0,0,0,0,0,0,0,0,0,0,0,0,0,0,0,0,0,0,0,0,0,0,0,0,0,0,0,0,0,0,0,0,0,0,0,0,0,0,0,0,0,0,0,0,0,0,0,0,0,0,0,0,0,0,0,0.0031,0.0031,0,0.0029,0.0029,0.0029,0.0008,0.0007,0.0006,0.0006,0.0008,0.0009,0.0009,0,0,0,0,0,0,0,0,0,0,0,0,0,0.0018,0.0018,0.0031,0.0031,0.0031,0.0029,0.0029,0.0029,0.0008,0.0007,0.0006,0.0006,0.0008,0.0009,0.0009,0,0,0,0,0,0,0,0,0,0,0,0,0,0.0021,0.0018,0.0031,0.002,0.0019,0.0029,0.0029,0.0029,0.0008,0.0007,0.0006,0.0005,0.0008,0.0009,0.0009,0.0032,0,0,0.0012,0.0013,0,0,0,0,0,0,0,0,0.002,0.0021,0.0021,0.002,0.0019,0.0018,0.0025,0.003,0.0008,0.0012,0.0006,0.0005,0.0012,0.0013,0.0014,0.0032,0.0032,0.0012,0.0013,0.0013,0.0013,0,0,0,0,0,0,0,0.002,0.0021,0.003,0.0021,0.002,0.0016,0.0015,0.0026,0.0017,0.0012,0.001,0.001,0.0012,0.0014,0.0014,0.0032,0.0012,0.0013,0.0014,0.0014,0.0068,0.0069,0,0,0,0,0,0,0.0021,0.0021,0.003,0.003,0.0018,0.0017,0.0016,0.0019,0.0017,0.0016,0.0011,0.0009,0.0013,0.0013,0.0014,0.004,0.0013,0.0014,0.0015,0.0067,0.0068,0.0069,0,0,0,0,0,0,0.0021,0.0022,0.003,0.0025,0.0026,0.0018,0.0021,0.0019,0.0021,0.0016,0.0015,0.0014,0.0012,0.0013,0.0027,0.004,0.0014,0.0015,0.0066,0.0067,0.0069,0.0093,0,0,0,0,0,0,0.0021,0.0022,0.003,0.0025,0.0026,0.0043,0.0022,0.002,0.0023,0.002,0.0019,0.0018,0.0011,0.0026,0.0028,0.0041,0.0016,0.0065,0.0067,0.0068,0.0091,0.0095,0.0098,0,0,0,0,0,0.002,0.0038,0.003,0.0032,0.0036,0.0043,0.0044,0.0035,0.0024,0.0032,0.0028,0.0018,0.0038,0.0028,0.003,0.0043,0.0064,0.0066,0.0068,0.0089,0.0094,0.0098,0,0,0,0,0,0,0.0045,0.0037,0.0029,0.0045,0.0045,0.004,0.005,0.004,0.0044,0.0042,0.0032,0.0031,0.0048,0.0047,0.0035,0.0065,0.0049,0.0052,0.0065,0.0069,0.0073,0.0073,0.0017,0,0,0,0,0,0.0053,0.0059,0.0051,0.0066,0.0067,0.0058,0.0061,0.0054,0.0054,0.0054,0.0052,0.0053,0.006,0.0064,0.007,0.009,0.009,0.01,0.0104,0.0107,0.011,0.0121,0.0125,0.0076,0.0076,0.0076,0,0,0.0068,0.0064,0.0069,0.0071,0.007,0.0078,0.0058,0.0067,0.0073,0.0056,0.0069,0.0067,0.0068,0.0085,0.0093,0.0085,0.0123,0.011,0.0112,0.0113,0.0123,0.0128,0.0132,0.0077,0.0077,0.0077,0,0,0.01,0.0097,0.011,0.0109,0.0107,0.0101,0.0104,0.01,0.0098,0.011,0.0098,0.0105,0.0116,0.0117,0.0119,0.0151,0.0142,0.0153,0.0173,0.0183,0.0187,0.0191,0.0202,0.0207,0.0155,0.0155,0.0155,0,0.012,0.0129,0.0118,0.0127,0.0128,0.0112,0.0125,0.0125,0.0126,0.0128,0.0118,0.0132,0.0132,0.0149,0.0156,0.0158,0.0162,0.0153,0.0187,0.0191,0.0194,0.0205,0.0209,0.0157,0.0157,0.0156,0.0156,0,0.0154,0.0161,0.0171,0.0171,0.0174,0.0185,0.0175,0.018,0.0172,0.0167,0.0181,0.0179,0.0184,0.0188,0.0181,0.0204,0.0199,0.0189,0.0173,0.02,0.021,0.0214,0.0159,0.0158,0.0158,0.0158,0,0,0.0203,0.0195,0.0199,0.0198,0.0195,0.0201,0.0211,0.0215,0.0219,0.022,0.0229,0.0238,0.0228,0.0231,0.0224,0.0233,0.0259,0.0222,0.0222,0.0229,0.0285,0.0293,0.0298,0.0252,0.0253,0.0253,0.0285,0,0.0234,0.025,0.0239,0.0258,0.0265,0.0249,0.0258,0.0257,0.0253,0.0259,0.0254,0.0261,0.0248,0.0249,0.0257,0.0254,0.027,0.0251,0.0262,0.0262,0.0262,0.0303,0.0312,0.0342,0.0289,0.0289,0.029,0,0.0272,0.0274,0.0293,0.0287,0.029,0.0298,0.03,0.0305,0.0305,0.0301,0.0303,0.0294,0.0304,0.0288,0.0304,0.0291,0.0295,0.0294,0.0294,0.0296,0.0278,0.0306,0.0351,0.0356,0.0296,0.0295,0.0295,0,0.0306,0.0313,0.0325,0.0325,0.0319,0.0326,0.0324,0.0322,0.0324,0.0327,0.0329,0.0333,0.0335,0.0339,0.0331,0.032,0.0348,0.0331,0.0346,0.0346,0.0353,0.0353,0.04,0.0354,0.0354,0.0354,0.0354,0,0.0343,0.0355,0.034,0.0348,0.0361,0.0349,0.0363,0.0359,0.0358,0.0365,0.0352,0.0359,0.0348,0.0354,0.0349,0.0362,0.0363,0.0361,0.036,0.0363,0.0363,0.0366,0.0364,0.0355,0.0355,0.0355,0.0355,0,0.0383,0.0374,0.0386,0.0379,0.0377,0.0388,0.0382,0.0389,0.0384,0.0393,0.0395,0.0387,0.0393,0.0386,0.0392,0.0388,0.0407,0.0402,0.0407,0.0406,0.0421,0.042,0.0472,0.0478,0.0428,0.0429,0.0429,0,0.0407,0.0416,0.041,0.0413,0.0411,0.0417,0.0419,0.0408,0.0411,0.041,0.0418,0.0423,0.0427,0.0439,0.0434,0.0439,0.0435,0.0452,0.0436,0.0438,0.0436,0.0435,0.0436,0.0456,0.0457,0.0457,0.0458,0,0.0451,0.0445,0.0449,0.045,0.0453,0.0455,0.0455,0.0458,0.0446,0.0451,0.0457,0.046,0.0466,0.0472,0.0475,0.0474,0.0464,0.0463,0.0467,0.047,0.0473,0.0472,0.0417,0.0462,0.0462,0.0461,0.0461,0.0461,0.0484,0.0491,0.0488,0.0492,0.049,0.0491,0.0497,0.0492,0.0496,0.05,0.0493,0.0501,0.05,0.0503,0.0503,0.051,0.0503,0.0508,0.0509,0.0511,0.0514,0.0471,0.0511,0.051,0.051,0.051,0.051,0,0.0527,0.0524,0.0528,0.0528,0.0531,0.052,0.052,0.0524,0.0531,0.053,0.0533,0.0541,0.0546,0.0541,0.0546,0.0552,0.0548,0.0554,0.0554,0.0554,0.052,0.0516,0.0558,0.0558,0.0558,0.0558,0.0558,0.0558,0.055,0.0561,0.0556,0.0567,0.0564,0.057,0.0571,0.0572,0.0571,0.0579,0.0583,0.0579,0.0577,0.0582,0.0586,0.0585,0.0588,0.0596,0.0593,0.0561,0.0556,0.0552,0.0549,0.0596,0.0596,0.0626,0.0627,0.0627]},{"header":{"parameterUnit":"m.s-1","parameterCategory":1,"la1":30.2991,"la2":30.254,"lo1":-89.0895,"lo2":-89.0444,"dy":0.0017,"dx":0.0017,"nx":28,"ny":28,"refTime":"2025-06-16T21:00:00:Z","depth":0,"parameterNumber":3,"parameterNumberName":"V-component_of_WINDS"},"data":[0,0,0,0,0,0,0,0,0,0,0,0,0,0,0,0,0,0,0,0,0,0,0,0,0,0,0,0,0,0,0,0,0,0,0,0,0,0,0,0,0,0,0,0,0,0,0,0,0,0,0,0,0,0,0,0,0,0,4.3608,4.3607,0,4.3592,4.3592,4.3592,4.3591,4.3591,4.3591,4.3591,4.357,4.3569,4.3568,0,0,0,0,0,0,0,0,0,0,0,0,0,4.3632,4.3632,4.3608,4.3607,4.3607,4.3592,4.3592,4.3592,4.3591,4.3591,4.3591,4.3591,4.357,4.3569,4.3568,0,0,0,0,0,0,0,0,0,0,0,0,0,4.362,4.3632,4.3608,4.3605,4.3605,4.3592,4.3592,4.3592,4.3591,4.3591,4.3591,4.3592,4.357,4.3569,4.3568,4.3555,0,0,4.3565,4.3564,0,0,0,0,0,0,0,0,4.362,4.3619,4.3606,4.3605,4.3605,4.3594,4.3593,4.3579,4.3591,4.3596,4.3591,4.3592,4.3577,4.3576,4.3572,4.3554,4.3553,4.3565,4.3564,4.3563,4.3563,0,0,0,0,0,0,0,4.3621,4.3619,4.3601,4.3605,4.3605,4.3603,4.3602,4.359,4.3585,4.3595,4.3595,4.3594,4.3577,4.3573,4.3571,4.3553,4.3565,4.3564,4.3563,4.3562,4.3526,4.3526,0,0,0,0,0,0,4.3623,4.362,4.3602,4.3601,4.3614,4.3603,4.3601,4.3597,4.3585,4.3584,4.3594,4.3594,4.3575,4.3573,4.3571,4.3556,4.3563,4.3562,4.3562,4.3526,4.3526,4.3526,0,0,0,0,0,0,4.3624,4.3622,4.3602,4.3611,4.3608,4.3602,4.3597,4.3597,4.3593,4.3584,4.3582,4.3591,4.3575,4.3572,4.356,4.3555,4.3562,4.3561,4.3527,4.3526,4.3526,4.3526,0,0,0,0,0,0,4.3624,4.3622,4.3618,4.3611,4.3608,4.3593,4.3597,4.3596,4.3591,4.3591,4.3581,4.3579,4.3575,4.3562,4.3559,4.3554,4.356,4.3527,4.3527,4.3526,4.3526,4.3525,4.3525,0,0,0,0,0,4.3625,4.3617,4.3617,4.3615,4.3603,4.3593,4.3591,4.3588,4.3591,4.3586,4.3581,4.3579,4.3556,4.356,4.3557,4.3551,4.3527,4.3527,4.3526,4.3526,4.3525,4.3525,0,0,0,0,0,0,4.3621,4.3615,4.3616,4.3605,4.36,4.3593,4.3587,4.3587,4.3579,4.3579,4.3574,4.3572,4.356,4.3554,4.3559,4.3539,4.3542,4.3541,4.3543,4.3542,4.3542,4.3543,4.3559,0,0,0,0,0,4.3619,4.3613,4.3608,4.3599,4.3597,4.3592,4.3588,4.3587,4.358,4.3577,4.357,4.3563,4.3554,4.3548,4.3539,4.3526,4.3523,4.352,4.352,4.3519,4.3518,4.3511,4.351,4.3524,4.3524,4.3524,0,0,4.3614,4.3611,4.3607,4.3598,4.3594,4.3587,4.359,4.3582,4.3577,4.3575,4.3564,4.3559,4.355,4.3538,4.3532,4.3533,4.3514,4.3518,4.3518,4.3517,4.351,4.3509,4.3508,4.3523,4.3523,4.3523,0,0,4.3602,4.3599,4.3591,4.3588,4.3582,4.358,4.3578,4.3572,4.3569,4.3559,4.3558,4.3551,4.3535,4.3529,4.3524,4.3513,4.3511,4.351,4.3505,4.3499,4.3498,4.3497,4.3493,4.3492,4.3509,4.3509,4.3509,0,4.3596,4.3587,4.3587,4.358,4.3576,4.3577,4.3569,4.3565,4.3556,4.3553,4.3555,4.3537,4.3531,4.3518,4.3515,4.3511,4.3509,4.351,4.3499,4.3498,4.3497,4.3493,4.3492,4.3509,4.3509,4.3509,4.3509,0,4.358,4.3574,4.3569,4.3563,4.3559,4.3551,4.3549,4.3544,4.3544,4.3541,4.3531,4.3524,4.3515,4.3512,4.351,4.3498,4.3499,4.35,4.3502,4.3495,4.3492,4.349,4.3508,4.3508,4.3508,4.3508,0,0,4.3563,4.3559,4.3557,4.3555,4.355,4.3545,4.3537,4.3531,4.3527,4.3521,4.3515,4.3503,4.3505,4.3499,4.3497,4.3491,4.3484,4.3493,4.3492,4.3491,4.3471,4.3471,4.3469,4.3483,4.3483,4.3483,4.3472,0,4.355,4.3539,4.354,4.3529,4.3523,4.3525,4.3519,4.3515,4.3513,4.3507,4.3504,4.3496,4.3498,4.3495,4.349,4.3486,4.3479,4.3486,4.3476,4.3476,4.3478,4.3467,4.3466,4.3456,4.3471,4.3471,4.347,0,4.3533,4.353,4.3519,4.3517,4.3514,4.3509,4.3504,4.3498,4.3494,4.3493,4.3488,4.3487,4.3479,4.3483,4.3472,4.3477,4.3473,4.347,4.347,4.3468,4.3472,4.3465,4.3453,4.3451,4.3468,4.3468,4.3468,0,4.3522,4.3514,4.3507,4.3505,4.3502,4.3499,4.3497,4.3493,4.3489,4.3484,4.3482,4.3475,4.3471,4.3466,4.3463,4.3467,4.3453,4.3456,4.3451,4.3451,4.3447,4.3447,4.3434,4.3445,4.3445,4.3445,4.3445,0,4.3507,4.35,4.3503,4.3498,4.3491,4.3492,4.3484,4.3482,4.3479,4.3474,4.3475,4.347,4.3467,4.3461,4.3459,4.345,4.3448,4.3447,4.3446,4.3446,4.3447,4.3443,4.3443,4.3444,4.3445,4.3445,4.3445,0,4.3492,4.3494,4.3486,4.3485,4.3485,4.3479,4.3478,4.3473,4.3473,4.3466,4.3464,4.3462,4.3456,4.3454,4.3444,4.3443,4.3433,4.3433,4.3435,4.3435,4.343,4.3431,4.3414,4.3412,4.3425,4.3425,4.3424,0,4.3483,4.3478,4.3477,4.3475,4.3474,4.347,4.3467,4.3468,4.3465,4.3461,4.3457,4.3451,4.3447,4.3436,4.3433,4.3426,4.3426,4.3421,4.3425,4.3426,4.3426,4.3426,4.3426,4.342,4.3419,4.3419,4.3419,0,4.3465,4.3467,4.3464,4.3461,4.3459,4.3457,4.3454,4.3452,4.3453,4.3449,4.3444,4.3441,4.3434,4.3428,4.3422,4.3419,4.3419,4.3419,4.3417,4.3417,4.3418,4.3418,4.3433,4.3418,4.3418,4.3418,4.3418,4.3419,4.3452,4.3449,4.3449,4.3446,4.3445,4.3443,4.344,4.344,4.3436,4.3432,4.3432,4.3427,4.3424,4.3416,4.3413,4.3408,4.3409,4.3407,4.3406,4.3406,4.3406,4.342,4.3407,4.3407,4.3407,4.3407,4.3407,0,4.3435,4.3436,4.3433,4.3432,4.3429,4.3433,4.3431,4.3428,4.3424,4.3422,4.3419,4.3413,4.3408,4.3406,4.3401,4.3397,4.3397,4.3396,4.3396,4.3395,4.3405,4.3407,4.3396,4.3396,4.3396,4.3396,4.3396,4.3396,4.3426,4.3421,4.3423,4.3417,4.3417,4.3414,4.3412,4.3411,4.341,4.3404,4.3401,4.3401,4.3399,4.3394,4.339,4.3389,4.3387,4.3385,4.3385,4.3393,4.3394,4.3395,4.3397,4.3385,4.3385,4.3376,4.3376,4.3376]}]]